When you browse on this site, cookies collect data to enhance your experience and personalize the content and advertising you see.
Visit our Privacy Policy to learn more. By continuing to use the site, you agree to this use of cookies and data.
  • In Austria
  • List of Countries
  • For 7 days
  • Water Temperature
  • Weather Map
  • News
  • Weather Widgets
  • user-avatar
    Login

    Hourly Weather Juticalpa

    Today, 30 May, Saturday

    Time Temperature Precipitation Wind Pressure Humidity
    00:00 +22°C° 0 mm 0 mps 727 mmHg 93%
    01:00 +22°C° 0 mm 0 mps 727 mmHg 93%
    02:00 +22°C° 0 mm 0 mps 726 mmHg 93%
    03:00 +22°C° 0 mm 0 mps 726 mmHg 92%
    04:00 +22°C° 0 mm 0 mps 726 mmHg 92%
    05:00 +22°C° 0 mm 0 mps 726 mmHg 92%
    06:00 +22°C° 0 mm 0 mps 727 mmHg 92%
    07:00 +24°C° 0 mm 0 mps 727 mmHg 87%
    08:00 +25°C° 0 mm 0 mps 727 mmHg 83%
    09:00 +28°C° 0 mm 1 mps 728 mmHg 78%
    10:00 +28°C° 0.5 mm 1 mps 727 mmHg 76%
    11:00 +29°C° 0.5 mm 1 mps 727 mmHg 73%
    12:00 +30°C° 0.5 mm 2 mps 727 mmHg 71%
    13:00 +30°C° 0.9 mm 1 mps 727 mmHg 72%
    14:00 +29°C° 0.9 mm 1 mps 726 mmHg 73%
    15:00 +29°C° 0.9 mm 1 mps 726 mmHg 74%
    16:00 +28°C° 0.5 mm 1 mps 726 mmHg 78%
    17:00 +27°C° 0.5 mm 1 mps 726 mmHg 83%
    18:00 +26°C° 0.5 mm 1 mps 726 mmHg 87%
    19:00 +26°C° 0.4 mm 1 mps 726 mmHg 88%
    20:00 +26°C° 0.4 mm 1 mps 727 mmHg 89%
    21:00 +23°C° 0.4 mm 0 mps 727 mmHg 90%
    22:00 +23°C° 0.1 mm 0 mps 727 mmHg 91%
    23:00 +23°C° 0.1 mm 0 mps 727 mmHg 92%

    Tomorrow, 31 May, Sunday

    Time Temperature Precipitation Wind Pressure Humidity
    00:00 +23°C° 0.1 mm 0 mps 727 mmHg 93%
    01:00 +22°C° 0.1 mm 0 mps 727 mmHg 94%
    02:00 +22°C° 0.1 mm 0 mps 726 mmHg 94%
    03:00 +22°C° 0.1 mm 0 mps 726 mmHg 95%
    04:00 +22°C° 0 mm 0 mps 726 mmHg 94%
    05:00 +22°C° 0 mm 0 mps 726 mmHg 94%
    06:00 +23°C° 0 mm 0 mps 727 mmHg 94%
    07:00 +23°C° 0 mm 0 mps 727 mmHg 90%
    08:00 +24°C° 0 mm 0 mps 728 mmHg 87%
    09:00 +25°C° 0 mm 0 mps 728 mmHg 83%
    10:00 +28°C° 0 mm 1 mps 728 mmHg 78%
    11:00 +29°C° 0 mm 1 mps 727 mmHg 72%
    12:00 +31°C° 0 mm 1 mps 727 mmHg 66%
    13:00 +31°C° 0.5 mm 1 mps 727 mmHg 66%
    14:00 +31°C° 0.5 mm 1 mps 726 mmHg 67%
    15:00 +29°C° 0.5 mm 0 mps 726 mmHg 68%
    16:00 +30°C° 1.5 mm 1 mps 726 mmHg 75%
    17:00 +28°C° 1.5 mm 1 mps 726 mmHg 81%
    18:00 +27°C° 1.5 mm 1 mps 726 mmHg 88%
    19:00 +26°C° 4.4 mm 1 mps 727 mmHg 91%
    20:00 +26°C° 4.4 mm 1 mps 727 mmHg 94%
    21:00 +25°C° 4.4 mm 1 mps 728 mmHg 97%
    22:00 +25°C° 8.3 mm 1 mps 727 mmHg 98%
    23:00 +25°C° 8.3 mm 1 mps 727 mmHg 98%

    Day after tomorrow, 1 June, Monday

    Time Temperature Precipitation Wind Pressure Humidity
    00:00 +23°C° 8.3 mm 0 mps 727 mmHg 98%
    01:00 +25°C° 2.4 mm 1 mps 727 mmHg 98%
    02:00 +25°C° 2.4 mm 1 mps 727 mmHg 98%
    03:00 +24°C° 2.4 mm 1 mps 726 mmHg 98%
    04:00 +24°C° 1.1 mm 1 mps 727 mmHg 98%
    05:00 +24°C° 1.1 mm 1 mps 727 mmHg 98%
    06:00 +24°C° 1.1 mm 1 mps 727 mmHg 98%
    07:00 +25°C° 0.2 mm 1 mps 727 mmHg 96%
    08:00 +25°C° 0.2 mm 1 mps 728 mmHg 95%
    09:00 +26°C° 0.2 mm 1 mps 728 mmHg 93%
    10:00 +26°C° 0.2 mm 1 mps 728 mmHg 90%
    11:00 +27°C° 0.2 mm 1 mps 728 mmHg 88%
    12:00 +28°C° 0.2 mm 1 mps 727 mmHg 85%
    13:00 +26°C° 1.6 mm 0 mps 727 mmHg 83%
    14:00 +27°C° 1.6 mm 0 mps 727 mmHg 82%
    15:00 +27°C° 1.6 mm 0 mps 727 mmHg 80%
    16:00 +26°C° 2.4 mm 0 mps 727 mmHg 86%
    17:00 +25°C° 2.4 mm 0 mps 727 mmHg 91%
    18:00 +25°C° 2.4 mm 1 mps 727 mmHg 97%
    19:00 +23°C° 3.9 mm 0 mps 727 mmHg 97%
    20:00 +23°C° 3.9 mm 0 mps 728 mmHg 97%
    21:00 +23°C° 3.9 mm 0 mps 728 mmHg 97%
    22:00 +23°C° 1.7 mm 0 mps 728 mmHg 97%
    23:00 +23°C° 1.7 mm 0 mps 728 mmHg 97%

    2 June, Tuesday

    Time Temperature Precipitation Wind Pressure Humidity
    00:00 +22°C° 1.7 mm 0 mps 728 mmHg 97%
    01:00 +22°C° 0.6 mm 0 mps 728 mmHg 97%
    02:00 +22°C° 0.6 mm 0 mps 727 mmHg 97%
    03:00 +22°C° 0.6 mm 0 mps 727 mmHg 97%
    04:00 +22°C° 0.1 mm 0 mps 727 mmHg 97%
    05:00 +22°C° 0.1 mm 0 mps 727 mmHg 97%
    06:00 +22°C° 0.1 mm 0 mps 727 mmHg 97%
    07:00 +23°C° 0 mm 0 mps 728 mmHg 94%
    08:00 +24°C° 0 mm 0 mps 728 mmHg 90%
    09:00 +24°C° 0 mm 0 mps 728 mmHg 87%
    10:00 +27°C° 0.2 mm 1 mps 728 mmHg 85%
    11:00 +27°C° 0.2 mm 1 mps 728 mmHg 83%
    12:00 +28°C° 0.2 mm 1 mps 727 mmHg 81%
    13:00 +27°C° 0.3 mm 1 mps 727 mmHg 83%
    14:00 +27°C° 0.3 mm 1 mps 726 mmHg 85%
    15:00 +26°C° 0.3 mm 1 mps 726 mmHg 87%
    16:00 +26°C° 0.4 mm 1 mps 726 mmHg 90%
    17:00 +23°C° 0.4 mm 0 mps 726 mmHg 93%
    18:00 +23°C° 0.4 mm 0 mps 727 mmHg 96%
    19:00 +23°C° 0.1 mm 0 mps 727 mmHg 96%
    20:00 +22°C° 0.1 mm 0 mps 728 mmHg 96%
    21:00 +22°C° 0.1 mm 0 mps 728 mmHg 97%
    22:00 +22°C° 0 mm 0 mps 728 mmHg 97%
    23:00 +22°C° 0 mm 0 mps 727 mmHg 97%

    3 June, Wednesday

    Time Temperature Precipitation Wind Pressure Humidity
    00:00 +22°C° 0 mm 0 mps 727 mmHg 97%
    01:00 +22°C° 0 mm 0 mps 727 mmHg 97%
    02:00 +22°C° 0 mm 0 mps 727 mmHg 96%
    03:00 +22°C° 0 mm 0 mps 726 mmHg 96%
    04:00 +23°C° 0.2 mm 0 mps 726 mmHg 95%
    05:00 +23°C° 0.2 mm 0 mps 727 mmHg 94%
    06:00 +23°C° 0.2 mm 0 mps 727 mmHg 93%
    07:00 +24°C° 0.5 mm 0 mps 727 mmHg 88%
    08:00 +27°C° 0.5 mm 1 mps 727 mmHg 84%
    09:00 +29°C° 0.5 mm 2 mps 728 mmHg 79%
    10:00 +29°C° 1 mm 2 mps 727 mmHg 78%
    11:00 +30°C° 1 mm 2 mps 727 mmHg 77%
    12:00 +30°C° 1 mm 2 mps 727 mmHg 75%
    13:00 +30°C° 1.2 mm 2 mps 726 mmHg 77%
    14:00 +29°C° 1.2 mm 2 mps 726 mmHg 79%
    15:00 +29°C° 1.2 mm 3 mps 725 mmHg 81%
    16:00 +27°C° 0.8 mm 2 mps 725 mmHg 85%
    17:00 +26°C° 0.8 mm 2 mps 726 mmHg 90%
    18:00 +25°C° 0.8 mm 1 mps 726 mmHg 94%
    19:00 +25°C° 0 mm 1 mps 726 mmHg 93%
    20:00 +25°C° 0 mm 1 mps 727 mmHg 93%
    21:00 +22°C° 0 mm 0 mps 727 mmHg 92%
    22:00 +22°C° 0 mm 0 mps 727 mmHg 93%
    23:00 +22°C° 0 mm 0 mps 727 mmHg 93%

    4 June, Thursday

    Time Temperature Precipitation Wind Pressure Humidity
    00:00 +22°C° 0 mm 0 mps 726 mmHg 94%
    01:00 +21°C° 0 mm 0 mps 726 mmHg 94%
    02:00 +21°C° 0 mm 0 mps 726 mmHg 94%
    03:00 +21°C° 0 mm 0 mps 725 mmHg 95%
    04:00 +21°C° 0 mm 0 mps 726 mmHg 94%
    05:00 +22°C° 0 mm 0 mps 726 mmHg 94%
    06:00 +22°C° 0 mm 0 mps 726 mmHg 94%
    07:00 +23°C° 0 mm 0 mps 726 mmHg 88%
    08:00 +25°C° 0 mm 0 mps 727 mmHg 82%
    09:00 +28°C° 0 mm 1 mps 727 mmHg 76%
    10:00 +29°C° 0 mm 1 mps 727 mmHg 69%
    11:00 +30°C° 0 mm 1 mps 727 mmHg 63%
    12:00 +31°C° 0 mm 2 mps 726 mmHg 57%
    13:00 +31°C° 0.3 mm 2 mps 726 mmHg 59%
    14:00 +31°C° 0.3 mm 2 mps 725 mmHg 62%
    15:00 +31°C° 0.3 mm 2 mps 724 mmHg 65%
    16:00 +29°C° 1.2 mm 2 mps 725 mmHg 73%
    17:00 +27°C° 1.2 mm 2 mps 725 mmHg 81%
    18:00 +26°C° 1.2 mm 1 mps 725 mmHg 89%
    19:00 +25°C° 0.2 mm 1 mps 725 mmHg 91%
    20:00 +25°C° 0.2 mm 1 mps 726 mmHg 92%
    21:00 +24°C° 0.2 mm 1 mps 726 mmHg 94%
    22:00 +22°C° 0.2 mm 0 mps 726 mmHg 95%
    23:00 +22°C° 0.2 mm 0 mps 726 mmHg 96%
    Show more